#timestamp,LO_Frequency,Hit,StdDev 
1561327215.1,286047007.5,Y
1561327235.9,286047003.8,P
1561327255.7,286047007.0,P
1561327275.5,286047006.0,P
1561327295.4,286047005.4,Y
1561327315.2,286047000.5,P
1561327335.0,286046997.2,N
1561327336.0,286046997.2,N
1561327355.8,286046996.6,N
1561327375.6,286046999.4,N
1561327395.5,286046997.1,N
1561327415.3,286046996.6,N
1561327435.1,286047001.1,N
1561327455.9,286047002.8,N
1561327475.7,286047003.8,N
1561327495.6,286047005.2,N
1561327515.4,286047005.0,N
1561327535.2,286047007.8,N
1561327555.1,286047009.9,N
1561327556.0,286047009.9,N
1561327575.8,286047010.5,N
1561327595.6,286047014.0,N
1561327615.5,286047009.8,N
1561327635.3,286047008.0,N
1561327655.2,286047013.3,N
1561327675.9,286047014.4,N
1561327695.7,286047014.3,N
1561327715.6,286047015.3,N
1561327735.4,286047018.7,N
1561327755.2,286047017.6,N
1561327775.1,286047017.5,N
1561327776.0,286047017.5,N
1561327795.8,286047017.5,N
1561327815.7,286047016.5,N
1561327835.5,286047017.2,N
1561327855.3,286047017.2,N
1561327875.2,286047018.7,N
1561327895.0,286047018.0,N
1561327895.9,286047018.0,N
1561327915.8,286047022.5,Y
1561327935.6,286047016.9,P
1561327955.4,286047015.7,P
1561327975.3,286047013.2,P
1561327995.1,286047013.2,Y
1561328015.9,286046997.1,P
1561328035.7,286046993.4,N
1561328055.5,286046993.9,N
1561328075.4,286046991.8,N
1561328095.2,286046995.0,N
1561328115.0,286046995.5,N
1561328115.9,286046995.5,N
1561328135.8,286046997.5,N
1561328155.6,286046995.4,N
1561328175.5,286047000.6,N
1561328195.3,286046998.4,N
1561328215.1,286046999.4,N
1561328235.9,286046995.5,N
1561328255.7,286046990.4,N
1561328275.5,286046989.4,N
1561328295.4,286046992.0,N
1561328315.2,286046991.7,N
1561328335.1,286046994.9,N
1561328336.0,286046994.9,N
1561328355.8,286046998.1,N
1561328375.6,286047004.8,N
1561328395.5,286047006.3,N
1561328415.3,286047008.4,N
1561328435.2,286047012.5,N
1561328455.9,286047013.0,N
1561328475.7,286047015.8,N
1561328495.6,286047021.0,N
1561328515.4,286047020.6,N
1561328535.2,286047022.8,N
1561328555.1,286047023.9,N
1561328556.0,286047023.9,N
1561328575.8,286047031.4,N
1561328595.7,286047026.5,N
1561328615.5,286047023.3,N
1561328635.3,286047023.3,N
1561328655.2,286047023.7,N
1561328675.0,286047022.7,N
1561328675.9,286047022.7,N
1561328695.8,286047017.7,N
1561328715.6,286047018.8,N
1561328735.4,286047017.5,N
1561328755.3,286047019.2,N
1561328775.1,286047019.2,N
1561328795.9,286047019.1,N
1561328815.7,286047016.8,N
1561328835.5,286047014.4,N
1561328855.4,286047014.0,N
1561328875.2,286047013.4,N
1561328895.0,286047009.6,N
1561328895.9,286047009.6,N
1561328915.8,286047008.3,N
1561328935.6,286047008.9,N
1561328955.5,286047007.7,N
1561328975.3,286047008.6,N
1561328995.1,286047009.5,N
1561329015.9,286047007.7,N
1561329035.7,286047006.2,N
1561329055.6,286047006.9,N
1561329075.4,286047007.3,N
1561329095.2,286047008.0,N
1561329115.1,286047007.2,N
1561329116.0,286047007.2,N
1561329135.8,286047005.5,N
1561329155.6,286047005.0,N
1561329175.5,286047006.2,N
1561329195.3,286047007.8,N
1561329215.2,286047012.0,N
1561329265.9,286047015.5,E
1561329275.9,286047005.1,N
1561329295.7,286046995.4,P
1561329315.5,286046993.7,N
1561329335.4,286046991.7,N
1561329355.2,286046995.1,N
1561329375.0,286046997.3,N
1561329375.9,286046997.3,N
1561329395.8,286046998.8,N
1561329415.6,286046999.7,N
1561329435.5,286046998.8,N
1561329455.3,286047000.4,N
1561329475.1,286046996.4,N
1561329495.9,286046993.6,N
1561329515.7,286046994.3,N
1561329535.5,286046992.0,N
1561329555.4,286046993.0,N
1561329575.3,286046998.5,N
1561329595.1,286046997.3,N
1561329596.0,286046997.3,N
1561329615.8,286046995.8,N
1561329635.7,286046997.0,N
1561329655.5,286046997.9,N
1561329675.3,286046997.8,N
1561329695.2,286047000.9,N
1561329715.0,286047003.8,N
1561329715.9,286047003.8,N
1561329735.8,286047005.6,N
1561329755.6,286047003.0,N
1561329775.5,286047003.4,N
1561329795.3,286047009.2,N
1561329815.1,286047008.2,N
1561329835.9,286047011.7,N
1561329855.7,286047015.1,Y
1561329875.6,286047013.4,P
1561329895.4,286047013.8,N
1561329915.2,286047019.4,N
1561329935.1,286047020.2,N
1561329936.0,286047020.2,N
1561329955.8,286047016.4,N
1561329975.7,286047023.6,Y
1561329995.5,286047010.9,P
1561330015.4,286047013.9,P
1561330035.2,286047012.0,P
1561330055.1,286047013.8,Y
1561330056.0,286047013.8,P
1561330075.8,286047000.5,N
1561330095.6,286047004.2,N
1561330115.5,286047011.9,N
1561330135.3,286047001.1,N
1561330155.2,286047001.6,N
1561330175.9,286047001.8,N
1561330195.7,286047003.6,N
1561330215.6,286047004.9,N
1561330235.4,286047008.8,N
1561330255.2,286047008.3,N
1561330275.1,286047010.2,N
1561330276.0,286047010.2,N
1561330295.8,286047012.6,N
1561330315.7,286047018.2,Y
1561330335.5,286047011.6,P
1561330355.3,286047015.1,P
1561330375.2,286047017.2,P
1561330395.0,286047016.8,Y
1561330395.9,286047016.8,P
1561330415.8,286047004.6,N
1561330435.6,286047004.8,N
1561330455.4,286047004.9,N
1561330475.3,286047006.2,N
1561330495.1,286047009.6,N
1561330515.9,286047009.5,N
1561330535.7,286047011.7,N
1561330555.5,286047011.1,N
1561330575.4,286047011.4,N
1561330595.2,286047015.6,Y
1561330615.1,286047007.6,P
1561330616.0,286047007.6,P
1561330635.8,286047008.6,P
1561330655.6,286047004.9,Y
1561330675.5,286046999.6,P
1561330695.3,286047000.4,N
1561330715.2,286047004.4,N
1561330735.9,286047002.0,N
1561330755.7,286047002.2,N
1561330775.6,286046998.7,N
1561330795.4,286046999.3,N
